TimeCST,TemperatureF,Dew PointF,Humidity,Sea Level PressureIn,VisibilityMPH,Wind Direction,Wind SpeedMPH,Gust SpeedMPH,PrecipitationIn,Events,Conditions,WindDirDegrees,DateUTC
12:53 AM,41.0,39.0,93,30.32,10.0,NE,4.6,-,N/A,,Clear,40,2012-11-18 06:53:00
1:53 AM,42.1,37.9,85,30.31,10.0,Calm,Calm,-,N/A,,Clear,0,2012-11-18 07:53:00
2:53 AM,39.9,37.9,93,30.30,10.0,Calm,Calm,-,N/A,,Clear,0,2012-11-18 08:53:00
3:53 AM,39.0,37.0,93,30.31,10.0,Calm,Calm,-,N/A,,Clear,0,2012-11-18 09:53:00
4:53 AM,37.0,35.1,93,30.31,10.0,Calm,Calm,-,N/A,,Clear,0,2012-11-18 10:53:00
5:53 AM,39.0,36.0,89,30.31,10.0,NE,4.6,-,N/A,,Clear,50,2012-11-18 11:53:00
6:53 AM,39.9,36.0,86,30.30,10.0,NE,3.5,-,N/A,,Clear,50,2012-11-18 12:53:00
7:53 AM,46.0,39.0,76,30.32,10.0,Calm,Calm,-,N/A,,Clear,0,2012-11-18 13:53:00
8:53 AM,53.1,39.9,61,30.32,10.0,ENE,5.8,-,N/A,,Clear,60,2012-11-18 14:53:00
9:53 AM,60.1,39.0,46,30.34,10.0,NE,4.6,-,N/A,,Clear,50,2012-11-18 15:53:00
10:53 AM,63.0,37.0,38,30.33,10.0,East,10.4,-,N/A,,Clear,90,2012-11-18 16:53:00
11:53 AM,64.9,37.9,37,30.30,10.0,ENE,3.5,-,N/A,,Clear,60,2012-11-18 17:53:00
12:53 PM,68.0,37.0,32,30.27,10.0,Variable,6.9,-,N/A,,Clear,0,2012-11-18 18:53:00
1:53 PM,68.0,36.0,31,30.25,10.0,East,8.1,-,N/A,,Clear,90,2012-11-18 19:53:00
2:53 PM,68.0,37.0,32,30.26,10.0,North,3.5,-,N/A,,Clear,10,2012-11-18 20:53:00
3:53 PM,66.9,37.0,33,30.25,10.0,East,8.1,-,N/A,,Clear,90,2012-11-18 21:53:00
4:53 PM,62.1,37.9,41,30.26,10.0,East,4.6,-,N/A,,Clear,80,2012-11-18 22:53:00
5:53 PM,55.0,42.1,62,30.26,10.0,Calm,Calm,-,N/A,,Clear,0,2012-11-18 23:53:00
6:53 PM,50.0,43.0,77,30.28,10.0,Calm,Calm,-,N/A,,Clear,0,2012-11-19 00:53:00
7:53 PM,48.0,43.0,83,30.29,10.0,Calm,Calm,-,N/A,,Clear,0,2012-11-19 01:53:00
8:53 PM,46.0,41.0,83,30.29,10.0,Calm,Calm,-,N/A,,Clear,0,2012-11-19 02:53:00
9:53 PM,45.0,42.1,90,30.29,10.0,Calm,Calm,-,N/A,,Clear,0,2012-11-19 03:53:00
10:53 PM,44.6,42.8,93,30.30,10.0,Calm,Calm,-,N/A,,Clear,0,2012-11-19 04:53:00
11:53 PM,44.1,41.0,89,30.29,10.0,Calm,Calm,-,N/A,,Clear,0,2012-11-19 05:53:00